Showing default

TUBSAT A, 21577

Orbit data source: Space-Track

TUBSAT A, 21577 is a payload satellite owned by TUB (DE) in SSO that was launched on Wed, 17 Jul 1991 UTC via an ARIANE 40 launch vehicle from the French Guiana (FRGUI). Payload-class satellites include a variety of spacecraft equipped with specific instruments for various scientific and technological missions. These include communications satellites like Starlink; space stations such as the ISS; scientific satellites like the Hubble; Earth observation satellites from companies like Planet Labs, Umbra, and HawkEye 360; GPS; miniature CubeSats for education and research; and military/defense satellites.

Loading next visibility...
Identifier
21577, 1991-050D
Orbit
SSO
Country
Flag of DEDE / GER
Related business
Manufacturer
TUB
Mission
Non-operational Amateur Communications
Bus & Motor
TUBSAT, Unknown motor
Mass
35 kg wet, 35 kg dry
Launch date (UTC)
1991-07-17 (35 years ago)
Launch vehicle
ARIANE 40
Launch site
French Guiana (FRGUI)
Object type
Payload
Rocket body
Debris
Shape & HBR
Hex Poly, 1.0 m
Radar Cross Section
0.165 m², Medium (>0.1 m² and < 1m²)

Expand to show TLE details & history
Last TLE update: 2 days ago

TLE from 2 days ago
0 TUBSAT A
1 21577U 91050D   26171.18978179  .00000086  00000-0  40520-4 0  9993
2 21577  98.3829 240.8947 0005047 245.9140 114.1521 14.40551095833810
Epoch: 2026-06-20T04:33Z
TLE epoch observation values (Epoch: 2026-06-20T04:33:17.146Z)
Latitude
-0.00005°
Longitude
-95.8347°
Altitude
761.106 km
Speed
7.473 km/s
True Right ascension
16h 03m 34s
True Declination
0° 00' 00"
Sunlit
Object was in full shadow at epoch
Visualization orbit readout
Latitude
Unknown
Longitude
Unknown
Altitude
Unknown
Speed
Unknown
Apparent Right ascension
Unknown
Apparent Declination
Unknown
Sunlit
N/A
Visualization observer readout
Local Sidereal Time
00:29:11
Azimuth
Unknown
Elevation
Unknown
Doppler factor
Unknown
Orbital elements
Apogee altitude
757.393 km
Perigee altitude
750.194 km
Semi-major axis
7,131.931 km
Eccentricity
0.0005
Inclination
98.3829°
RAAN
240.8947°
Arg. of periapsis
245.914°
True anomaly
114.20486°
Mean anomaly
114.1521°
Eccentric anomaly
114.17848°
Mean motion
3.60357 °/min
Orbital period
99.9 mins
BSTAR
0.00004052
Loading maneuver chart data...
Computing Atmospheric mass density...
Loading historical data...
Loading historical data...
Loading historical data...
Loading historical data...
Loading historical data...
Loading historical data...
Loading historical data...

Documentation

Showing up to 5 results
|